Gary Chicago International Airport Gary US
ICAO: KGYY
IATA: GYY
Category: Medium
Scheduled Services: No

Elevation: 591 ft
TransAlt. 18000 ft.

Airport Communications:
CHICAGO APP/DEP:133.1
ATIS:120.625
CTAF:125.6
GND:121.9
KANKAKEE RDO:114.2
TERRE HAUTE RDO:123.65
TWR:125.6

KGYY Zoom In..

Runways:

(A) RW 02 length 3603 ft width 100 ft
---- / hdg 23

(B) RW 12 length 7003 ft width 150 ft
---- / hdg 126

(C) RW 20 length 3603 ft width 100 ft
---- / hdg 203

(D) RW 30 length 7003 ft width 150 ft
ILS 108.75 / hdg 306

Location; KGYY
Day. 23 / Time. 21.45 Zulu
* Altimeter: 30.17
* Temperature: 21° c. 69.8°f.
* Wind from: VRB° Speed 04 kn.
Dewpoint: 14° c.
Visibility: 10 Statute Miles.
Clouds: Scattered 25000 ft.

KGYY 232145Z VRB04KT 10SM SCT250 21/14 A3017


Wind From VRB°
Speed 04 kn.

 
 
jpsmedia.com for Web Design SOUNDCLOUD worldairports.se 2018   terms of use